Tracking 29932 objects as of 3-Dec-2024
HD Live streaming from Space Station
objects crossing your sky now

STARLINK-30302

Track STARLINK-30302 now!
10-day predictions
STARLINK-30302 is classified as:


NORAD ID: 57664
Int'l Code: 2023-124B
Perigee: 442.5 km
Apogee: 449.9 km
Inclination: 53.2 °
Period: 93.4 minutes
Semi major axis: 6817 km
RCS: Unknown
Launch date: August 22, 2023
Source: United States (US)
Launch site: AIR FORCE WESTERN TEST RANGE (AFWTR)
Your satellite tracking list
Your tracking list is empty




NASA's NSSDC Master Catalog

Two Line Element Set (TLE):
1 57664U 23124B   24337.90995042  .00015783  00000-0  36846-3 0  9991
2 57664  53.1641 191.3494 0005378 216.7973 143.2665 15.42390894 72864
Source of the keplerian elements: AFSPC